Weather in Lermontovskiy

Russia / Irkutsk Oblast     54°18′11″N   101°22′04″E
temp.,
°C
wind,
m/s
gust,
m/s
humid.,
%
clouds,
%
prec.,
mm/h
press.,
hPa
HPBL,
m
21 june, mon
mon2123:00+15w38865 0.3 1002139
02:00+13wnw118246 0.4 100212
05:00+13ssw118551 0.0 100211
08:00+18s127020 0.0 1003268
11:00+23n215581 0.0 1002907
14:00+26ne224737 0.0 10011380
17:00+26nne33475 0.0 10001336
20:00+17nw71285100 0.1 1003467
22 june, tue
tue2223:00+12nw61297100 3.8 1007452
02:00+11nw61394100 4.2 1010552
05:00+10nw51394100 0.0 1011547
08:00+11nw488298 0.0 1012507
11:00+16nw3458100 0.0 1011895
14:00+19nnw2249100 0.0 10101258
17:00+20nne2147100 0.0 10091346
20:00+18ne236641 0.0 1009110
23 june, wed
wed2323:00+13ene227469 0.0 100915
02:00+11e34855 0.0 100971
05:00+10e24885 0.0 100760
08:00+16ese487294 0.0 1006411
11:00+20ese3459100 0.0 1005950
14:00+24nnw2348100 0.0 10061916
17:00+18nw6965100 0.0 1008671
20:00+16nw41170100 0.0 1009610
24 june, thu
thu2423:00+14wnw31082100 0.3 1009393
02:00+12wnw4994100 0.8 1010411
05:00+11nw51198100 4.5 1009604
08:00+11nw3995100 11.4 1010619
11:00+13nw4781100 0.1 1011737
14:00+16nw356249 0.1 10101251
17:00+18nnw235633 0.1 10081423
20:00+17ne11695 0.1 100856
25 june, fri
fri2523:00+11ese22874 0.0 101024
02:00+10se23913 0.0 101058
05:00+9ese25940 0.0 100983
08:00+15ese357314 0.0 1009344
11:00+19ese3456100 0.0 10081041
14:00+23e344852 0.0 10061345
17:00+24e334727 0.0 10051403
20:00+21n236814 0.0 100686